| time (UTC) | temp C | wind direction | speed KPH | gust KPH | rain 1hr cm | rain 24hr cm | rain mn cm | humidity % | barometer mb |
| 20260507170420 | 16 | 225 | 8.0 | 12.9 | 0.00 | 0.00 | 0.00 | 52 | 1014.3 |
| 20260507165917 | 17 | 218 | 12.9 | 14.5 | 0.00 | 0.00 | 0.00 | 51 | 1014.4 |
| 20260507165412 | 17 | 257 | 11.3 | 14.5 | 0.00 | 0.00 | 0.00 | 51 | 1014.3 |
| 20260507164908 | 16 | 144 | 4.8 | 16.1 | 0.00 | 0.00 | 0.00 | 55 | 1014.4 |
| 20260507164406 | 17 | 241 | 8.0 | 12.9 | 0.00 | 0.00 | 0.00 | 53 | 1014.7 |
| 20260507163903 | 16 | 176 | 1.6 | 14.5 | 0.00 | 0.00 | 0.00 | 54 | 1014.8 |
| 20260507163400 | 16 | 212 | 4.8 | 17.7 | 0.00 | 0.00 | 0.00 | 53 | 1014.7 |
| 20260507162857 | 16 | 246 | 9.7 | 12.9 | 0.00 | 0.00 | 0.00 | 52 | 1014.6 |
| 20260507162352 | 15 | 194 | 8.0 | 17.7 | 0.00 | 0.00 | 0.00 | 54 | 1014.5 |
| 20260507161849 | 16 | 179 | 3.2 | 12.9 | 0.00 | 0.00 | 0.00 | 54 | 1014.7 |
| 20260507161345 | 16 | 166 | 0.0 | 4.8 | 0.00 | 0.00 | 0.00 | 56 | 1014.8 |
| 20260507160842 | 16 | 193 | 6.4 | 9.7 | 0.00 | 0.00 | 0.00 | 55 | 1014.7 |
| 20260507160338 | 16 | 170 | 3.2 | 9.7 | 0.00 | 0.00 | 0.00 | 54 | 1014.4 |
| 20260507155835 | 16 | 169 | 3.2 | 11.3 | 0.00 | 0.00 | 0.00 | 55 | 1014.7 |
| 20260507155330 | 15 | 168 | 3.2 | 11.3 | 0.00 | 0.00 | 0.00 | 57 | 1014.6 |
| 20260507154827 | 16 | 162 | 1.6 | 9.7 | 0.00 | 0.00 | 0.00 | 54 | 1014.9 |
| 20260507154325 | 16 | 214 | 8.0 | 12.9 | 0.00 | 0.00 | 0.00 | 53 | 1015.0 |
| 20260507153821 | 16 | 283 | 11.3 | 14.5 | 0.00 | 0.00 | 0.00 | 54 | 1015.1 |
| 20260507153318 | 16 | 207 | 4.8 | 12.9 | 0.00 | 0.00 | 0.00 | 52 | 1015.0 |
| 20260507152815 | 16 | 210 | 4.8 | 8.0 | 0.00 | 0.00 | 0.00 | 53 | 1015.0 |
| 20260507152311 | 16 | 213 | 6.4 | 12.9 | 0.00 | 0.00 | 0.00 | 54 | 1014.8 |
| 20260507151807 | 16 | 174 | 1.6 | 9.7 | 0.00 | 0.00 | 0.00 | 54 | 1015.1 |
| 20260507151303 | 15 | 120 | 3.2 | 8.0 | 0.00 | 0.00 | 0.00 | 57 | 1015.3 |
| 20260507150800 | 16 | 269 | 4.8 | 9.7 | 0.00 | 0.00 | 0.00 | 55 | 1015.4 |
| 20260507150257 | 16 | 223 | 6.4 | 12.9 | 0.00 | 0.00 | 0.00 | 54 | 1015.3 |
| 20260507145753 | 16 | 212 | 4.8 | 8.0 | 0.00 | 0.00 | 0.00 | 54 | 1015.4 |
| 20260507145249 | 15 | 215 | 3.2 | 3.2 | 0.00 | 0.00 | 0.00 | 54 | 1015.3 |
| 20260507144747 | 15 | 189 | 1.6 | 4.8 | 0.00 | 0.00 | 0.00 | 56 | 1015.6 |
| 20260507144244 | 15 | 192 | 9.7 | 14.5 | 0.00 | 0.00 | 0.00 | 55 | 1015.4 |
| 20260507143740 | 15 | 223 | 6.4 | 11.3 | 0.00 | 0.00 | 0.00 | 57 | 1015.6 |
| 20260507143238 | 15 | 176 | 3.2 | 9.7 | 0.00 | 0.00 | 0.00 | 57 | 1015.4 |
| 20260507142734 | 15 | 277 | 8.0 | 9.7 | 0.00 | 0.00 | 0.00 | 56 | 1015.2 |
| 20260507142230 | 15 | 320 | 11.3 | 12.9 | 0.00 | 0.00 | 0.00 | 56 | 1015.7 |
| 20260507141727 | 15 | 224 | 3.2 | 9.7 | 0.00 | 0.00 | 0.00 | 58 | 1015.3 |
| 20260507141224 | 14 | 239 | 6.4 | 9.7 | 0.00 | 0.00 | 0.00 | 58 | 1015.6 |
| 20260507140720 | 15 | 188 | 3.2 | 12.9 | 0.00 | 0.00 | 0.00 | 57 | 1015.7 |
| 20260507140218 | 14 | 113 | 1.6 | 8.0 | 0.00 | 0.00 | 0.00 | 61 | 1015.6 |
| 20260507135714 | 13 | 246 | 4.8 | 9.7 | 0.00 | 0.00 | 0.00 | 60 | 1015.4 |
| 20260507135212 | 14 | 223 | 4.8 | 9.7 | 0.00 | 0.00 | 0.00 | 59 | 1015.6 |
| 20260507134708 | 13 | 164 | 0.0 | 8.0 | 0.00 | 0.00 | 0.00 | 61 | 1015.4 |
| 20260507134204 | 13 | 255 | 3.2 | 9.7 | 0.00 | 0.00 | 0.00 | 60 | 1015.7 |
| 20260507133700 | 13 | 178 | 3.2 | 4.8 | 0.00 | 0.00 | 0.00 | 61 | 1015.8 |
| 20260507133158 | 12 | 194 | 3.2 | 4.8 | 0.00 | 0.00 | 0.00 | 64 | 1015.8 |
| 20260507132655 | 12 | 202 | 4.8 | 8.0 | 0.00 | 0.00 | 0.00 | 63 | 1015.4 |
| 20260507132151 | 12 | 210 | 4.8 | 9.7 | 0.00 | 0.00 | 0.00 | 63 | 1015.7 |
| 20260507131648 | 12 | 183 | 4.8 | 9.7 | 0.00 | 0.00 | 0.00 | 65 | 1015.6 |
| 20260507131145 | 12 | 152 | 0.0 | 4.8 | 0.00 | 0.00 | 0.00 | 66 | 1015.6 |
| 20260507130642 | 11 | 210 | 3.2 | 8.0 | 0.00 | 0.00 | 0.00 | 65 | 1015.8 |
| 20260507130140 | 12 | 158 | 1.6 | 4.8 | 0.00 | 0.00 | 0.00 | 67 | 1015.7 |
| 20260507125638 | 11 | 160 | 0.0 | 3.2 | 0.00 | 0.00 | 0.00 | 66 | 1016.0 |
| 20260507125136 | 11 | 120 | 1.6 | 4.8 | 0.00 | 0.00 | 0.00 | 68 | 1016.0 |
| 20260507124632 | 11 | 173 | 0.0 | 4.8 | 0.00 | 0.00 | 0.00 | 67 | 1015.9 |
| 20260507124130 | 11 | 186 | 1.6 | 3.2 | 0.00 | 0.00 | 0.00 | 66 | 1016.0 |
| 20260507123628 | 10 | 197 | 4.8 | 8.0 | 0.00 | 0.00 | 0.00 | 67 | 1015.8 |
| 20260507123125 | 10 | 190 | 3.2 | 3.2 | 0.00 | 0.00 | 0.00 | 67 | 1015.7 |
| 20260507122620 | 10 | 177 | 1.6 | 1.6 | 0.00 | 0.00 | 0.00 | 66 | 1015.9 |
| 20260507122116 | 10 | 212 | 3.2 | 3.2 | 0.00 | 0.00 | 0.00 | 66 | 1015.9 |
| 20260507121612 | 10 | 167 | 0.0 | 1.6 | 0.00 | 0.00 | 0.00 | 69 | 1015.9 |
| 20260507121108 | 8 | 195 | 0.0 | 1.6 | 0.00 | 0.00 | 0.00 | 70 | 1016.1 |
| 20260507120604 | 8 | 199 | 1.6 | 4.8 | 0.00 | 0.00 | 0.00 | 71 | 1015.8 |
| 20260507120101 | 8 | 195 | 1.6 | 3.2 | 0.00 | 0.00 | 0.00 | 72 | 1015.6 |
| 20260507115557 | 7 | 194 | 0.0 | 1.6 | 0.00 | 0.00 | 0.00 | 72 | 1015.8 |
| 20260507115053 | 7 | 197 | 0.0 | 0.0 | 0.00 | 0.00 | 0.00 | 74 | 1015.6 |
| 20260507114549 | 7 | 197 | 0.0 | 1.6 | 0.00 | 0.00 | 0.00 | 74 | 1015.7 |
| 20260507114046 | 7 | 197 | 0.0 | 0.0 | 0.00 | 0.00 | 0.00 | 74 | 1015.8 |
| 20260507113543 | 7 | 197 | 0.0 | 0.0 | 0.00 | 0.00 | 0.00 | 73 | 1016.0 |
| 20260507113041 | 7 | 197 | 0.0 | 0.0 | 0.00 | 0.00 | 0.00 | 73 | 1015.7 |
| 20260507112538 | 7 | 197 | 0.0 | 0.0 | 0.00 | 0.00 | 0.00 | 73 | 1015.7 |
| 20260507112035 | 7 | 197 | 0.0 | 0.0 | 0.00 | 0.00 | 0.00 | 73 | 1015.7 |
| 20260507111532 | 7 | 197 | 0.0 | 1.6 | 0.00 | 0.00 | 0.00 | 72 | 1015.7 |
| 20260507111029 | 7 | 197 | 0.0 | 0.0 | 0.00 | 0.00 | 0.00 | 72 | 1015.6 |
| 20260507110525 | 7 | 197 | 0.0 | 0.0 | 0.00 | 0.00 | 0.00 | 72 | 1015.6 |
| 20260507110021 | 7 | 197 | 0.0 | 1.6 | 0.00 | 0.00 | 0.00 | 71 | 1015.7 |
| 20260507105519 | 7 | 197 | 0.0 | 1.6 | 0.00 | 0.00 | 0.00 | 71 | 1015.6 |
| 20260507105014 | 7 | 197 | 0.0 | 0.0 | 0.00 | 0.00 | 0.00 | 71 | 1015.8 |
| 20260507104513 | 7 | 197 | 0.0 | 0.0 | 0.00 | 0.00 | 0.00 | 70 | 1015.9 |
| 20260507104008 | 7 | 197 | 0.0 | 0.0 | 0.00 | 0.00 | 0.00 | 69 | 1016.0 |
| 20260507103505 | 7 | 198 | 1.6 | 3.2 | 0.00 | 0.00 | 0.00 | 68 | 1015.8 |
| 20260507103001 | 7 | 178 | 0.0 | 0.0 | 0.00 | 0.00 | 0.00 | 69 | 1015.8 |
| 20260507102458 | 7 | 178 | 0.0 | 1.6 | 0.00 | 0.00 | 0.00 | 68 | 1015.7 |
| 20260507101954 | 7 | 195 | 0.0 | 0.0 | 0.00 | 0.00 | 0.00 | 68 | 1015.6 |
| 20260507101449 | 7 | 196 | 0.0 | 0.0 | 0.00 | 0.00 | 0.00 | 67 | 1016.0 |
| 20260507100946 | 7 | 194 | 0.0 | 0.0 | 0.00 | 0.00 | 0.00 | 66 | 1015.8 |
| 20260507100444 | 7 | 194 | 1.6 | 1.6 | 0.00 | 0.00 | 0.00 | 66 | 1015.8 |
| 20260507095942 | 7 | 194 | 0.0 | 1.6 | 0.00 | 0.00 | 0.00 | 66 | 1015.9 |
| 20260507095439 | 7 | 194 | 0.0 | 1.6 | 0.00 | 0.00 | 0.00 | 64 | 1016.0 |
| 20260507094936 | 7 | 195 | 0.0 | 0.0 | 0.00 | 0.00 | 0.00 | 65 | 1015.8 |
| 20260507094432 | 7 | 195 | 0.0 | 1.6 | 0.00 | 0.00 | 0.00 | 64 | 1016.1 |
| 20260507093929 | 7 | 195 | 0.0 | 0.0 | 0.00 | 0.00 | 0.00 | 65 | 1016.0 |
| 20260507093427 | 7 | 195 | 0.0 | 0.0 | 0.00 | 0.00 | 0.00 | 64 | 1016.1 |
| 20260507092925 | 7 | 195 | 0.0 | 0.0 | 0.00 | 0.00 | 0.00 | 64 | 1016.1 |
| 20260507092421 | 7 | 195 | 0.0 | 0.0 | 0.00 | 0.00 | 0.00 | 65 | 1016.0 |
| 20260507091918 | 7 | 193 | 0.0 | 0.0 | 0.00 | 0.00 | 0.00 | 65 | 1016.1 |
| 20260507091414 | 7 | 193 | 0.0 | 0.0 | 0.00 | 0.00 | 0.00 | 66 | 1016.2 |
| 20260507090910 | 7 | 193 | 0.0 | 0.0 | 0.00 | 0.00 | 0.00 | 65 | 1016.1 |
| 20260507090406 | 7 | 193 | 0.0 | 0.0 | 0.00 | 0.00 | 0.00 | 66 | 1016.1 |
| 20260507085903 | 7 | 192 | 0.0 | 0.0 | 0.00 | 0.00 | 0.00 | 66 | 1016.2 |
| 20260507085400 | 7 | 192 | 0.0 | 0.0 | 0.00 | 0.00 | 0.00 | 66 | 1016.1 |
| 20260507084858 | 7 | 192 | 0.0 | 0.0 | 0.00 | 0.00 | 0.00 | 67 | 1016.0 |
| 20260507084354 | 7 | 192 | 0.0 | 0.0 | 0.00 | 0.00 | 0.00 | 67 | 1016.3 |
| 20260507083851 | 7 | 192 | 0.0 | 0.0 | 0.00 | 0.00 | 0.00 | 68 | 1016.2 |
| 20260507083347 | 7 | 192 | 0.0 | 0.0 | 0.00 | 0.00 | 0.00 | 69 | 1016.3 |
| 20260507082844 | 7 | 192 | 0.0 | 0.0 | 0.00 | 0.00 | 0.00 | 67 | 1016.3 |
| 20260507082339 | 6 | 192 | 0.0 | 0.0 | 0.00 | 0.00 | 0.00 | 68 | 1016.2 |
| 20260507081837 | 6 | 192 | 0.0 | 0.0 | 0.00 | 0.00 | 0.00 | 70 | 1016.2 |
| 20260507081333 | 6 | 192 | 0.0 | 0.0 | 0.00 | 0.00 | 0.00 | 69 | 1016.3 |
| 20260507080830 | 6 | 192 | 0.0 | 0.0 | 0.00 | 0.00 | 0.00 | 70 | 1016.1 |
| 20260507080326 | 6 | 192 | 0.0 | 0.0 | 0.00 | 0.00 | 0.00 | 70 | 1016.2 |
| 20260507075821 | 6 | 192 | 0.0 | 0.0 | 0.00 | 0.00 | 0.00 | 71 | 1016.1 |
| 20260507075318 | 6 | 192 | 0.0 | 0.0 | 0.00 | 0.00 | 0.00 | 72 | 1015.9 |
| 20260507074814 | 6 | 192 | 0.0 | 0.0 | 0.00 | 0.00 | 0.00 | 73 | 1016.1 |
| 20260507074312 | 6 | 192 | 0.0 | 0.0 | 0.00 | 0.00 | 0.00 | 71 | 1016.0 |
| 20260507073809 | 6 | 192 | 0.0 | 0.0 | 0.00 | 0.00 | 0.00 | 70 | 1016.1 |
| 20260507073306 | 6 | 192 | 0.0 | 0.0 | 0.00 | 0.00 | 0.00 | 71 | 1016.2 |
| 20260507072803 | 6 | 192 | 0.0 | 0.0 | 0.00 | 0.00 | 0.00 | 72 | 1016.3 |
| 20260507072300 | 6 | 192 | 0.0 | 0.0 | 0.00 | 0.00 | 0.00 | 71 | 1016.3 |
| 20260507071757 | 6 | 192 | 0.0 | 0.0 | 0.00 | 0.00 | 0.00 | 71 | 1016.2 |
| 20260507071254 | 7 | 192 | 0.0 | 0.0 | 0.00 | 0.00 | 0.00 | 69 | 1016.5 |
| 20260507070751 | 7 | 192 | 0.0 | 0.0 | 0.00 | 0.00 | 0.00 | 69 | 1016.6 |
| 20260507070248 | 7 | 192 | 0.0 | 0.0 | 0.00 | 0.00 | 0.00 | 68 | 1016.5 |
| 20260507065744 | 7 | 192 | 0.0 | 0.0 | 0.00 | 0.00 | 0.00 | 68 | 1016.6 |
| 20260507065241 | 7 | 192 | 0.0 | 1.6 | 0.00 | 0.00 | 0.00 | 68 | 1016.7 |
| 20260507064738 | 7 | 192 | 0.0 | 1.6 | 0.00 | 0.00 | 0.00 | 69 | 1016.8 |
| 20260507064237 | 7 | 192 | 0.0 | 0.0 | 0.00 | 0.00 | 0.00 | 69 | 1016.8 |
| 20260507063734 | 7 | 192 | 0.0 | 0.0 | 0.00 | 0.00 | 0.00 | 70 | 1016.9 |
| 20260507063231 | 7 | 192 | 0.0 | 0.0 | 0.00 | 0.00 | 0.00 | 72 | 1016.7 |
| 20260507062728 | 7 | 192 | 0.0 | 0.0 | 0.00 | 0.00 | 0.00 | 71 | 1017.0 |
| 20260507062225 | 7 | 192 | 0.0 | 0.0 | 0.00 | 0.00 | 0.00 | 71 | 1016.7 |
| 20260507061723 | 7 | 192 | 0.0 | 0.0 | 0.00 | 0.00 | 0.00 | 70 | 1016.8 |
| 20260507061221 | 7 | 192 | 0.0 | 0.0 | 0.00 | 0.00 | 0.00 | 71 | 1016.8 |
| 20260507060719 | 7 | 192 | 0.0 | 0.0 | 0.00 | 0.00 | 0.00 | 71 | 1016.9 |
| 20260507060215 | 7 | 192 | 0.0 | 0.0 | 0.00 | 0.00 | 0.00 | 70 | 1016.8 |
| 20260507055711 | 7 | 192 | 0.0 | 0.0 | 0.00 | 0.00 | 0.00 | 71 | 1016.7 |
| 20260507055207 | 7 | 192 | 0.0 | 0.0 | 0.00 | 0.00 | 0.00 | 69 | 1016.6 |
| 20260507054703 | 7 | 192 | 0.0 | 0.0 | 0.00 | 0.00 | 0.00 | 71 | 1016.8 |
| 20260507054200 | 7 | 192 | 0.0 | 0.0 | 0.00 | 0.00 | 0.00 | 70 | 1017.0 |
| 20260507053658 | 7 | 192 | 0.0 | 0.0 | 0.00 | 0.00 | 0.00 | 69 | 1016.7 |
| 20260507053156 | 7 | 192 | 0.0 | 0.0 | 0.00 | 0.00 | 0.00 | 69 | 1016.7 |
| 20260507052654 | 7 | 192 | 0.0 | 0.0 | 0.00 | 0.00 | 0.00 | 72 | 1016.8 |
| 20260507052150 | 7 | 192 | 0.0 | 0.0 | 0.00 | 0.00 | 0.00 | 67 | 1016.9 |
| 20260507051647 | 7 | 192 | 0.0 | 0.0 | 0.00 | 0.00 | 0.00 | 69 | 1017.1 |
| 20260507051144 | 7 | 192 | 0.0 | 0.0 | 0.00 | 0.00 | 0.00 | 71 | 1016.7 |
| 20260507050641 | 7 | 192 | 0.0 | 1.6 | 0.00 | 0.00 | 0.00 | 72 | 1016.9 |
| 20260507050138 | 7 | 192 | 0.0 | 0.0 | 0.00 | 0.00 | 0.00 | 70 | 1016.8 |
| 20260507045635 | 7 | 192 | 0.0 | 1.6 | 0.00 | 0.03 | 0.03 | 72 | 1016.8 |
| 20260507045131 | 7 | 192 | 0.0 | 1.6 | 0.00 | 0.03 | 0.03 | 72 | 1016.7 |
| 20260507044628 | 7 | 192 | 0.0 | 0.0 | 0.00 | 0.03 | 0.03 | 73 | 1016.6 |
| 20260507044125 | 7 | 192 | 0.0 | 1.6 | 0.00 | 0.03 | 0.03 | 73 | 1016.9 |
| 20260507043621 | 7 | 192 | 0.0 | 0.0 | 0.00 | 0.03 | 0.03 | 73 | 1016.9 |
| 20260507043118 | 7 | 192 | 0.0 | 1.6 | 0.00 | 0.03 | 0.03 | 72 | 1016.7 |
| 20260507042614 | 6 | 192 | 0.0 | 0.0 | 0.00 | 0.03 | 0.03 | 73 | 1016.9 |
| 20260507042109 | 6 | 192 | 0.0 | 0.0 | 0.00 | 0.03 | 0.03 | 75 | 1016.8 |
| 20260507041606 | 6 | 192 | 0.0 | 0.0 | 0.00 | 0.03 | 0.03 | 76 | 1016.9 |
| 20260507041104 | 6 | 192 | 0.0 | 0.0 | 0.00 | 0.03 | 0.03 | 75 | 1016.8 |
| 20260507040600 | 6 | 192 | 0.0 | 0.0 | 0.00 | 0.03 | 0.03 | 75 | 1017.0 |
| 20260507040057 | 6 | 192 | 1.6 | 1.6 | 0.00 | 0.03 | 0.03 | 75 | 1016.9 |
| 20260507035553 | 6 | 192 | 0.0 | 1.6 | 0.00 | 0.03 | 0.03 | 76 | 1017.0 |
| 20260507035049 | 6 | 192 | 0.0 | 0.0 | 0.00 | 0.03 | 0.03 | 76 | 1017.2 |
| 20260507034546 | 6 | 192 | 0.0 | 0.0 | 0.00 | 0.03 | 0.03 | 75 | 1017.0 |
| 20260507034044 | 6 | 192 | 0.0 | 0.0 | 0.00 | 0.03 | 0.03 | 75 | 1017.1 |
| 20260507033542 | 6 | 192 | 0.0 | 0.0 | 0.00 | 0.03 | 0.03 | 73 | 1017.1 |
| 20260507033038 | 6 | 193 | 0.0 | 0.0 | 0.00 | 0.03 | 0.03 | 74 | 1017.0 |
| 20260507032535 | 6 | 192 | 0.0 | 0.0 | 0.00 | 0.03 | 0.03 | 74 | 1016.9 |
| 20260507032032 | 6 | 192 | 0.0 | 0.0 | 0.00 | 0.03 | 0.03 | 73 | 1016.8 |
| 20260507031528 | 6 | 192 | 0.0 | 0.0 | 0.00 | 0.03 | 0.03 | 75 | 1017.0 |
| 20260507031025 | 6 | 193 | 0.0 | 0.0 | 0.00 | 0.03 | 0.03 | 74 | 1016.9 |
| 20260507030522 | 6 | 192 | 0.0 | 0.0 | 0.00 | 0.03 | 0.03 | 74 | 1016.9 |
| 20260507030020 | 7 | 192 | 0.0 | 0.0 | 0.00 | 0.03 | 0.03 | 72 | 1017.0 |
| 20260507025516 | 7 | 192 | 0.0 | 0.0 | 0.00 | 0.03 | 0.03 | 71 | 1017.1 |
| 20260507025014 | 7 | 192 | 0.0 | 0.0 | 0.00 | 0.03 | 0.03 | 71 | 1017.1 |
| 20260507024512 | 7 | 192 | 0.0 | 0.0 | 0.00 | 0.03 | 0.03 | 71 | 1017.0 |
| 20260507024008 | 7 | 193 | 0.0 | 0.0 | 0.00 | 0.03 | 0.03 | 69 | 1016.8 |
| 20260507023504 | 7 | 192 | 0.0 | 0.0 | 0.00 | 0.03 | 0.03 | 69 | 1016.7 |
| 20260507023002 | 7 | 193 | 0.0 | 0.0 | 0.00 | 0.03 | 0.03 | 70 | 1016.7 |
| 20260507022458 | 7 | 192 | 0.0 | 0.0 | 0.00 | 0.03 | 0.03 | 68 | 1016.6 |
| 20260507021954 | 7 | 193 | 0.0 | 0.0 | 0.00 | 0.03 | 0.03 | 63 | 1016.6 |
| 20260507021450 | 8 | 193 | 0.0 | 0.0 | 0.00 | 0.03 | 0.03 | 64 | 1016.7 |
| 20260507020947 | 8 | 193 | 0.0 | 1.6 | 0.00 | 0.03 | 0.03 | 65 | 1016.4 |
| 20260507020444 | 8 | 193 | 1.6 | 1.6 | 0.00 | 0.03 | 0.03 | 66 | 1016.5 |
| 20260507015941 | 8 | 193 | 1.6 | 1.6 | 0.00 | 0.03 | 0.03 | 63 | 1016.4 |
| 20260507015439 | 8 | 193 | 1.6 | 1.6 | 0.00 | 0.03 | 0.03 | 60 | 1016.5 |
| 20260507014936 | 8 | 193 | 0.0 | 1.6 | 0.00 | 0.03 | 0.03 | 60 | 1016.4 |
| 20260507014433 | 9 | 193 | 0.0 | 1.6 | 0.00 | 0.03 | 0.03 | 57 | 1016.5 |
| 20260507013929 | 9 | 193 | 0.0 | 1.6 | 0.00 | 0.03 | 0.03 | 55 | 1016.3 |
| 20260507013426 | 10 | 193 | 0.0 | 0.0 | 0.00 | 0.03 | 0.03 | 55 | 1016.5 |
| 20260507012923 | 10 | 193 | 0.0 | 0.0 | 0.00 | 0.03 | 0.03 | 53 | 1016.1 |
| 20260507012420 | 11 | 193 | 0.0 | 0.0 | 0.00 | 0.03 | 0.03 | 48 | 1016.2 |
| 20260507011917 | 11 | 193 | 0.0 | 1.6 | 0.00 | 0.03 | 0.03 | 51 | 1016.1 |
| 20260507011414 | 11 | 193 | 0.0 | 1.6 | 0.00 | 0.03 | 0.03 | 45 | 1016.0 |
| 20260507010913 | 12 | 193 | 0.0 | 1.6 | 0.00 | 0.03 | 0.03 | 47 | 1016.0 |
| 20260507010409 | 12 | 193 | 0.0 | 1.6 | 0.00 | 0.03 | 0.03 | 38 | 1016.0 |
| 20260507005906 | 12 | 194 | 0.0 | 1.6 | 0.00 | 0.03 | 0.03 | 37 | 1016.0 |
| 20260507005403 | 13 | 194 | 0.0 | 1.6 | 0.00 | 0.03 | 0.03 | 38 | 1016.0 |
| 20260507004900 | 13 | 196 | 0.0 | 3.2 | 0.00 | 0.03 | 0.03 | 36 | 1015.9 |
| 20260507004357 | 13 | 177 | 1.6 | 3.2 | 0.00 | 0.03 | 0.03 | 36 | 1016.0 |
| 20260507003854 | 13 | 193 | 0.0 | 3.2 | 0.00 | 0.03 | 0.03 | 36 | 1015.9 |
| 20260507003349 | 13 | 193 | 0.0 | 1.6 | 0.00 | 0.03 | 0.03 | 37 | 1016.0 |
| 20260507002844 | 13 | 230 | 3.2 | 3.2 | 0.00 | 0.03 | 0.03 | 34 | 1015.7 |
| 20260507002341 | 13 | 280 | 3.2 | 4.8 | 0.00 | 0.03 | 0.03 | 36 | 1016.0 |
| 20260507001838 | 13 | 171 | 1.6 | 3.2 | 0.00 | 0.03 | 0.03 | 35 | 1016.0 |
| 20260507001335 | 13 | 211 | 3.2 | 4.8 | 0.00 | 0.03 | 0.03 | 33 | 1015.8 |
| 20260507000831 | 14 | 166 | 0.0 | 4.8 | 0.00 | 0.03 | 0.03 | 34 | 1015.9 |
| 20260507000328 | 14 | 159 | 0.0 | 3.2 | 0.00 | 0.03 | 0.03 | 37 | 1015.9 |
| 20260506235824 | 14 | 148 | 0.0 | 1.6 | 0.00 | 0.03 | 0.03 | 36 | 1015.9 |
| 20260506235320 | 14 | 224 | 3.2 | 4.8 | 0.00 | 0.03 | 0.03 | 33 | 1015.8 |
| 20260506234816 | 15 | 185 | 0.0 | 3.2 | 0.00 | 0.03 | 0.03 | 34 | 1016.1 |
| 20260506234314 | 15 | 152 | 1.6 | 3.2 | 0.00 | 0.03 | 0.03 | 32 | 1016.2 |
| 20260506233812 | 16 | 299 | 1.6 | 4.8 | 0.00 | 0.03 | 0.03 | 33 | 1015.8 |
| 20260506233307 | 16 | 233 | 3.2 | 3.2 | 0.00 | 0.03 | 0.03 | 32 | 1016.1 |
| 20260506232804 | 16 | 219 | 3.2 | 4.8 | 0.00 | 0.03 | 0.03 | 32 | 1015.9 |
| 20260506232300 | 16 | 190 | 0.0 | 8.0 | 0.00 | 0.03 | 0.03 | 32 | 1015.8 |
| 20260506231757 | 16 | 228 | 3.2 | 4.8 | 0.00 | 0.03 | 0.03 | 28 | 1016.0 |
| 20260506231255 | 16 | 307 | 4.8 | 4.8 | 0.00 | 0.03 | 0.03 | 29 | 1016.0 |
| 20260506230752 | 16 | 286 | 3.2 | 11.3 | 0.00 | 0.03 | 0.03 | 29 | 1016.0 |
| 20260506230249 | 16 | 262 | 6.4 | 9.7 | 0.00 | 0.03 | 0.03 | 30 | 1015.8 |
| 20260506225745 | 16 | 20 | 8.0 | 9.7 | 0.00 | 0.03 | 0.03 | 32 | 1015.8 |
| 20260506225242 | 16 | 285 | 4.8 | 8.0 | 0.00 | 0.03 | 0.03 | 31 | 1015.9 |
| 20260506224738 | 16 | 58 | 4.8 | 9.7 | 0.00 | 0.03 | 0.03 | 33 | 1015.9 |
| 20260506224236 | 16 | 325 | 6.4 | 8.0 | 0.00 | 0.03 | 0.03 | 30 | 1016.0 |
| 20260506223732 | 16 | 240 | 4.8 | 9.7 | 0.00 | 0.03 | 0.03 | 31 | 1016.1 |
| 20260506223228 | 16 | 228 | 6.4 | 9.7 | 0.00 | 0.03 | 0.03 | 30 | 1016.3 |
| 20260506222725 | 16 | 194 | 3.2 | 4.8 | 0.00 | 0.03 | 0.03 | 31 | 1016.1 |
| 20260506222220 | 16 | 286 | 4.8 | 9.7 | 0.00 | 0.03 | 0.03 | 33 | 1016.2 |
| 20260506221719 | 16 | 252 | 4.8 | 11.3 | 0.00 | 0.03 | 0.03 | 30 | 1016.3 |
| 20260506221217 | 16 | 208 | 3.2 | 4.8 | 0.00 | 0.03 | 0.03 | 33 | 1016.0 |
| 20260506220714 | 16 | 144 | 1.6 | 11.3 | 0.00 | 0.03 | 0.03 | 32 | 1016.1 |
| 20260506220208 | 15 | 173 | 0.0 | 3.2 | 0.00 | 0.03 | 0.03 | 35 | 1016.2 |
| 20260506215705 | 15 | 300 | 3.2 | 11.3 | 0.00 | 0.03 | 0.03 | 36 | 1016.1 |
| 20260506215200 | 15 | 249 | 4.8 | 9.7 | 0.00 | 0.03 | 0.03 | 33 | 1016.4 |
| 20260506214657 | 15 | 252 | 3.2 | 4.8 | 0.00 | 0.03 | 0.03 | 33 | 1016.3 |
| 20260506214155 | 15 | 222 | 6.4 | 11.3 | 0.00 | 0.03 | 0.03 | 31 | 1016.5 |
| 20260506213653 | 15 | 194 | 1.6 | 11.3 | 0.00 | 0.03 | 0.03 | 35 | 1016.1 |
| 20260506213150 | 15 | 202 | 4.8 | 11.3 | 0.00 | 0.03 | 0.03 | 31 | 1016.4 |
| 20260506212647 | 16 | 202 | 1.6 | 4.8 | 0.00 | 0.03 | 0.03 | 34 | 1016.4 |
| 20260506212142 | 15 | 243 | 3.2 | 8.0 | 0.00 | 0.03 | 0.03 | 33 | 1016.6 |
| 20260506211638 | 15 | 20 | 6.4 | 12.9 | 0.00 | 0.03 | 0.03 | 36 | 1016.5 |
| 20260506211134 | 16 | 267 | 4.8 | 12.9 | 0.00 | 0.03 | 0.03 | 32 | 1016.6 |
| 20260506210631 | 15 | 241 | 4.8 | 8.0 | 0.00 | 0.03 | 0.03 | 33 | 1016.6 |
| 20260506210128 | 15 | 65 | 3.2 | 8.0 | 0.00 | 0.03 | 0.03 | 34 | 1016.9 |
| 20260506205625 | 15 | 164 | 1.6 | 8.0 | 0.00 | 0.03 | 0.03 | 34 | 1016.9 |
| 20260506205120 | 15 | 29 | 6.4 | 12.9 | 0.00 | 0.03 | 0.03 | 34 | 1016.9 |
| 20260506204618 | 15 | 109 | 1.6 | 3.2 | 0.00 | 0.03 | 0.03 | 36 | 1017.2 |
| 20260506204115 | 15 | 126 | 6.4 | 9.7 | 0.00 | 0.03 | 0.03 | 35 | 1017.3 |
| 20260506203613 | 15 | 218 | 6.4 | 9.7 | 0.00 | 0.03 | 0.03 | 32 | 1017.0 |
| 20260506203109 | 15 | 315 | 3.2 | 9.7 | 0.00 | 0.03 | 0.03 | 36 | 1017.3 |
| 20260506202607 | 14 | 242 | 6.4 | 9.7 | 0.00 | 0.03 | 0.03 | 35 | 1017.5 |
| 20260506202103 | 15 | 133 | 4.8 | 9.7 | 0.00 | 0.03 | 0.03 | 33 | 1017.3 |
| 20260506201601 | 15 | 138 | 3.2 | 8.0 | 0.00 | 0.03 | 0.03 | 37 | 1017.2 |
| 20260506201057 | 15 | 252 | 6.4 | 9.7 | 0.00 | 0.03 | 0.03 | 33 | 1017.6 |
| 20260506200554 | 13 | 295 | 6.4 | 8.0 | 0.00 | 0.03 | 0.03 | 33 | 1017.1 |
| 20260506200051 | 14 | 180 | 4.8 | 9.7 | 0.00 | 0.03 | 0.03 | 32 | 1017.4 |
| 20260506195547 | 13 | 73 | 9.7 | 12.9 | 0.00 | 0.03 | 0.03 | 36 | 1017.5 |
| 20260506195043 | 14 | 15 | 8.0 | 11.3 | 0.00 | 0.03 | 0.03 | 37 | 1017.7 |
| 20260506194541 | 13 | 158 | 0.0 | 1.6 | 0.00 | 0.03 | 0.03 | 37 | 1017.5 |
| 20260506194037 | 13 | 153 | 1.6 | 8.0 | 0.00 | 0.03 | 0.03 | 36 | 1017.8 |
| 20260506193535 | 13 | 121 | 3.2 | 8.0 | 0.00 | 0.03 | 0.03 | 40 | 1017.7 |
| 20260506193032 | 13 | 287 | 4.8 | 12.9 | 0.00 | 0.03 | 0.03 | 33 | 1017.6 |
| 20260506192529 | 13 | 183 | 1.6 | 4.8 | 0.00 | 0.03 | 0.03 | 35 | 1017.7 |
| 20260506192025 | 14 | 36 | 4.8 | 4.8 | 0.00 | 0.03 | 0.03 | 37 | 1017.7 |
| 20260506191522 | 14 | 255 | 1.6 | 12.9 | 0.00 | 0.03 | 0.03 | 36 | 1017.7 |
| 20260506191018 | 14 | 127 | 4.8 | 8.0 | 0.00 | 0.03 | 0.03 | 35 | 1017.6 |
| 20260506190515 | 14 | 144 | 3.2 | 8.0 | 0.00 | 0.03 | 0.03 | 37 | 1017.7 |
| 20260506190012 | 13 | 162 | 4.8 | 4.8 | 0.00 | 0.03 | 0.03 | 33 | 1017.8 |
| 20260506185509 | 13 | 240 | 4.8 | 8.0 | 0.00 | 0.03 | 0.03 | 34 | 1018.0 |
| 20260506185006 | 14 | 238 | 6.4 | 11.3 | 0.00 | 0.03 | 0.03 | 33 | 1017.9 |
| 20260506184503 | 14 | 170 | 1.6 | 11.3 | 0.00 | 0.03 | 0.03 | 30 | 1018.0 |
| 20260506184000 | 13 | 278 | 6.4 | 8.0 | 0.00 | 0.03 | 0.03 | 32 | 1017.9 |
| 20260506183455 | 14 | 99 | 4.8 | 9.7 | 0.00 | 0.03 | 0.03 | 37 | 1017.9 |
| 20260506182952 | 13 | 212 | 1.6 | 8.0 | 0.00 | 0.03 | 0.03 | 34 | 1017.8 |
| 20260506182450 | 13 | 212 | 4.8 | 11.3 | 0.00 | 0.03 | 0.03 | 34 | 1017.9 |
| 20260506181947 | 13 | 193 | 1.6 | 3.2 | 0.00 | 0.03 | 0.03 | 37 | 1018.1 |
| 20260506181445 | 13 | 207 | 1.6 | 9.7 | 0.00 | 0.03 | 0.03 | 35 | 1018.3 |
| 20260506180941 | 13 | 44 | 3.2 | 4.8 | 0.00 | 0.03 | 0.03 | 37 | 1018.3 |
| 20260506180438 | 13 | 173 | 4.8 | 4.8 | 0.00 | 0.03 | 0.03 | 36 | 1018.1 |
| 20260506175935 | 13 | 17 | 8.0 | 12.9 | 0.00 | 0.03 | 0.03 | 38 | 1018.2 |
| 20260506175432 | 13 | 233 | 4.8 | 8.0 | 0.00 | 0.03 | 0.03 | 35 | 1018.4 |
| 20260506174928 | 13 | 212 | 3.2 | 11.3 | 0.00 | 0.03 | 0.03 | 33 | 1018.4 |
| 20260506174426 | 13 | 170 | 1.6 | 8.0 | 0.00 | 0.03 | 0.03 | 33 | 1018.3 |
| 20260506173922 | 13 | 157 | 0.0 | 3.2 | 0.00 | 0.03 | 0.03 | 35 | 1018.3 |
| 20260506173420 | 13 | 97 | 3.2 | 4.8 | 0.00 | 0.03 | 0.03 | 35 | 1018.1 |
| 20260506172917 | 13 | 156 | 1.6 | 4.8 | 0.00 | 0.03 | 0.03 | 38 | 1018.2 |
| 20260506172413 | 13 | 64 | 3.2 | 11.3 | 0.00 | 0.03 | 0.03 | 39 | 1018.3 |
| 20260506171910 | 13 | 156 | 1.6 | 8.0 | 0.00 | 0.03 | 0.03 | 40 | 1018.5 |
| 20260506171408 | 13 | 246 | 6.4 | 11.3 | 0.00 | 0.03 | 0.03 | 35 | 1018.2 |
| 20260506170906 | 14 | 325 | 8.0 | 11.3 | 0.00 | 0.03 | 0.03 | 37 | 1018.2 |